Location: Brodeslavy
(49.9527°N, 13.5567°E)
Time: 04:04:06
(UTC+00:00)

Cosmos 1269 Rocket - Pass Details

Date: 17 June 2025
Orbit: 768 x 776 km, 74.1° (Epoch: 12 July)

Event Time Altitude Azimuth Distance (km) Brightness Sun altitude
Exits shadow 21:12:17 - 208° (SSW) 3,255 6.9 -12.4°
Rises 21:12:21 0° 208° (SSW) 3,233 6.9 -12.4°
Reaches altitude 10° 21:14:43 10° 210° (SSW) 2,311 6.2 -12.5°
Maximum altitude 21:19:58 73° 296° (WNW) 811 4.2 -12.9°
Drops below altitude 10° 21:25:16 10° 21° (NNE) 2,333 7.2 -13.3°
Sets 21:27:40 0° 23° (NNE) 3,265 7.9 -13.4°
